Time,TemperatureF,DewpointF,PressureIn,WindDirection,WindDirectionDegrees,WindSpeedMPH,WindSpeedGustMPH,Humidity,HourlyPrecipIn,Conditions,Clouds,dailyrainin,SoftwareType,DateUTC
2013-12-07 01:01:00,36.2,35.7,29.95,NW,325,7.0,10.0,98,0.67,,---,0.65,VWS V14.01,2013-12-07 06:01:00,
2013-12-07 03:41:00,30.7,30.2,30.15,NW,319,0.0,10.0,98,1.87,,---,0.00,VWS V14.01,2013-12-07 08:41:00,
2013-12-07 03:47:00,29.9,29.4,30.21,NW,319,0.0,10.0,98,1.87,,---,0.00,VWS V14.01,2013-12-07 08:47:00,
2013-12-07 07:57:00,29.9,29.4,30.21,NW,319,0.0,10.0,98,1.87,,---,0.00,VWS V14.01,2013-12-07 12:57:00,
2013-12-07 08:40:00,28.3,27.8,30.34,NNW,338,0.0,0.0,98,0.00,,---,0.00,VWS V14.01,2013-12-07 13:40:00,
2013-12-07 08:55:00,28.3,27.8,30.35,NW,319,0.0,0.0,98,0.00,,---,0.00,VWS V14.01,2013-12-07 13:55:00,
2013-12-07 09:00:00,28.2,27.7,30.35,NW,319,0.0,0.0,98,0.00,,---,0.00,VWS V14.01,2013-12-07 14:00:00,
2013-12-07 09:05:00,28.1,27.6,30.35,NW,319,0.0,0.0,98,0.00,,---,0.00,VWS V14.01,2013-12-07 14:05:00,
2013-12-07 09:11:00,28.1,27.6,30.36,NW,319,0.0,0.0,98,0.00,,---,0.00,VWS V14.01,2013-12-07 14:11:00,
2013-12-07 09:16:00,28.1,27.6,30.36,NW,319,0.0,0.0,98,0.00,,---,0.00,VWS V14.01,2013-12-07 14:16:00,
2013-12-07 09:21:00,28.0,27.5,30.36,NW,319,0.0,0.0,98,0.00,,---,0.00,VWS V14.01,2013-12-07 14:21:00,
2013-12-07 09:26:00,27.9,27.4,30.36,NW,319,0.0,0.0,98,0.00,,---,0.00,VWS V14.01,2013-12-07 14:26:00,
2013-12-07 09:31:00,27.9,27.4,30.37,NW,319,0.0,0.0,98,0.00,,---,0.00,VWS V14.01,2013-12-07 14:31:00,
2013-12-07 09:36:00,27.9,27.4,30.37,NW,319,0.0,0.0,98,0.00,,---,0.00,VWS V14.01,2013-12-07 14:36:00,
2013-12-07 09:41:00,28.0,27.5,30.37,NW,319,0.0,0.0,98,0.00,,---,0.00,VWS V14.01,2013-12-07 14:41:00,
2013-12-07 09:46:00,28.0,27.5,30.38,NW,319,0.0,0.0,98,0.00,,---,0.00,VWS V14.01,2013-12-07 14:46:00,
2013-12-07 09:51:00,28.2,27.7,30.39,NW,319,0.0,0.0,98,0.00,,---,0.00,VWS V14.01,2013-12-07 14:51:00,
2013-12-07 09:56:00,28.3,27.8,30.39,NW,319,0.0,0.0,98,0.00,,---,0.00,VWS V14.01,2013-12-07 14:56:00,
2013-12-07 10:01:00,28.4,27.9,30.39,NW,319,0.0,0.0,98,0.00,,---,0.00,VWS V14.01,2013-12-07 15:01:00,
2013-12-07 10:06:00,28.6,28.1,30.39,NW,319,0.0,0.0,98,0.00,,---,0.00,VWS V14.01,2013-12-07 15:06:00,
2013-12-07 10:11:00,28.9,28.4,30.39,NW,319,0.0,0.0,98,0.00,,---,0.00,VWS V14.01,2013-12-07 15:11:00,
2013-12-07 10:16:00,28.9,28.4,30.39,NW,319,0.0,0.0,98,0.00,,---,0.00,VWS V14.01,2013-12-07 15:16:00,
2013-12-07 10:21:00,28.7,28.2,30.39,NW,319,0.0,0.0,98,0.00,,---,0.00,VWS V14.01,2013-12-07 15:21:00,
2013-12-07 10:26:00,28.7,28.2,30.40,NW,319,0.0,0.0,98,0.00,,---,0.00,VWS V14.01,2013-12-07 15:26:00,
2013-12-07 10:32:00,28.7,28.2,30.40,NW,319,0.0,0.0,98,0.00,,---,0.00,VWS V14.01,2013-12-07 15:32:00,
2013-12-07 10:37:00,28.4,27.9,30.39,NW,319,0.0,0.0,98,0.00,,---,0.00,VWS V14.01,2013-12-07 15:37:00,
2013-12-07 10:42:00,28.2,27.7,30.39,NW,319,0.0,0.0,98,0.00,,---,0.00,VWS V14.01,2013-12-07 15:42:00,
2013-12-07 10:47:00,28.1,27.4,30.39,NW,319,0.0,0.0,97,0.00,,---,0.00,VWS V14.01,2013-12-07 15:47:00,
2013-12-07 10:52:00,28.1,27.4,30.39,NW,319,0.0,0.0,97,0.00,,---,0.00,VWS V14.01,2013-12-07 15:52:00,
2013-12-07 10:57:00,28.0,27.5,30.39,NW,319,0.0,0.0,98,0.00,,---,0.00,VWS V14.01,2013-12-07 15:57:00,
2013-12-07 11:02:00,28.1,27.6,30.39,NW,319,0.0,0.0,98,0.00,,---,0.00,VWS V14.01,2013-12-07 16:02:00,
2013-12-07 11:07:00,28.1,27.4,30.39,NW,319,0.0,0.0,97,0.00,,---,0.00,VWS V14.01,2013-12-07 16:07:00,
2013-12-07 11:12:00,28.1,27.4,30.39,NW,319,0.0,0.0,97,0.00,,---,0.00,VWS V14.01,2013-12-07 16:12:00,
2013-12-07 11:17:00,28.3,27.8,30.40,NW,319,0.0,0.0,98,0.00,,---,0.00,VWS V14.01,2013-12-07 16:17:00,
2013-12-07 11:22:00,28.4,27.9,30.39,NW,319,0.0,0.0,98,0.00,,---,0.00,VWS V14.01,2013-12-07 16:22:00,
2013-12-07 11:27:00,28.5,28.0,30.39,NW,319,0.0,0.0,98,0.00,,---,0.00,VWS V14.01,2013-12-07 16:27:00,
2013-12-07 11:32:00,28.6,28.1,30.39,NW,320,0.0,0.0,98,0.00,,---,0.00,VWS V14.01,2013-12-07 16:32:00,
2013-12-07 11:37:00,28.9,28.4,30.39,NW,321,0.0,0.0,98,0.00,,---,0.00,VWS V14.01,2013-12-07 16:37:00,
2013-12-07 11:42:00,29.0,28.5,30.39,NW,323,0.0,0.0,98,0.00,,---,0.00,VWS V14.01,2013-12-07 16:42:00,
2013-12-07 11:47:00,29.1,28.6,30.40,NW,312,0.0,0.0,98,0.00,,---,0.00,VWS V14.01,2013-12-07 16:47:00,
2013-12-07 11:52:00,28.9,28.4,30.40,NW,324,0.0,0.0,98,0.00,,---,0.00,VWS V14.01,2013-12-07 16:52:00,
2013-12-07 11:57:00,29.1,28.6,30.40,NW,324,0.0,0.0,98,0.00,,---,0.00,VWS V14.01,2013-12-07 16:57:00,
2013-12-07 12:03:00,29.0,28.5,30.40,NW,324,0.0,0.0,98,0.00,,---,0.00,VWS V14.01,2013-12-07 17:03:00,
2013-12-07 12:08:00,28.9,28.4,30.40,NW,324,0.0,0.0,98,0.00,,---,0.00,VWS V14.01,2013-12-07 17:08:00,
2013-12-07 12:13:00,28.8,28.3,30.40,NW,324,0.0,0.0,98,0.00,,---,0.00,VWS V14.01,2013-12-07 17:13:00,
2013-12-07 12:18:00,28.8,28.3,30.40,NW,324,0.0,0.0,98,0.00,,---,0.00,VWS V14.01,2013-12-07 17:18:00,
2013-12-07 12:23:00,28.8,28.3,30.40,NW,324,0.0,0.0,98,0.00,,---,0.00,VWS V14.01,2013-12-07 17:23:00,
2013-12-07 12:28:00,28.7,28.2,30.40,NW,324,0.0,0.0,98,0.00,,---,0.00,VWS V14.01,2013-12-07 17:28:00,
2013-12-07 12:33:00,28.7,28.2,30.40,NW,324,0.0,0.0,98,0.00,,---,0.00,VWS V14.01,2013-12-07 17:33:00,
2013-12-07 12:38:00,28.7,28.2,30.40,NW,324,0.0,0.0,98,0.00,,---,0.00,VWS V14.01,2013-12-07 17:38:00,
2013-12-07 12:43:00,28.7,28.2,30.40,NW,324,0.0,0.0,98,0.00,,---,0.00,VWS V14.01,2013-12-07 17:43:00,
2013-12-07 12:48:00,28.8,28.3,30.40,NW,324,0.0,0.0,98,0.00,,---,0.00,VWS V14.01,2013-12-07 17:48:00,
2013-12-07 12:53:00,28.8,28.3,30.40,NW,324,0.0,0.0,98,0.00,,---,0.00,VWS V14.01,2013-12-07 17:53:00,
2013-12-07 12:58:00,28.6,28.1,30.40,NW,324,0.0,0.0,98,0.00,,---,0.00,VWS V14.01,2013-12-07 17:58:00,
2013-12-07 13:03:00,28.4,27.9,30.40,NW,324,0.0,0.0,98,0.00,,---,0.00,VWS V14.01,2013-12-07 18:03:00,
2013-12-07 13:08:00,28.5,28.0,30.40,NW,324,0.0,0.0,98,0.00,,---,0.00,VWS V14.01,2013-12-07 18:08:00,
2013-12-07 13:13:00,28.4,27.9,30.40,NW,324,0.0,0.0,98,0.00,,---,0.00,VWS V14.01,2013-12-07 18:13:00,
2013-12-07 13:18:00,28.1,27.6,30.40,NW,324,0.0,0.0,98,0.00,,---,0.00,VWS V14.01,2013-12-07 18:18:00,
2013-12-07 13:23:00,28.0,27.3,30.40,NW,324,0.0,0.0,97,0.00,,---,0.00,VWS V14.01,2013-12-07 18:23:00,
2013-12-07 13:28:00,27.9,27.2,30.40,NW,324,0.0,0.0,97,0.00,,---,0.00,VWS V14.01,2013-12-07 18:28:00,
2013-12-07 13:34:00,27.9,27.2,30.40,NW,324,0.0,0.0,97,0.00,,---,0.00,VWS V14.01,2013-12-07 18:34:00,
2013-12-07 13:39:00,27.9,27.2,30.40,NW,324,0.0,0.0,97,0.00,,---,0.00,VWS V14.01,2013-12-07 18:39:00,
2013-12-07 13:44:00,27.8,27.1,30.40,NW,324,0.0,0.0,97,0.00,,---,0.00,VWS V14.01,2013-12-07 18:44:00,
2013-12-07 13:49:00,27.8,27.1,30.40,NW,324,0.0,0.0,97,0.00,,---,0.00,VWS V14.01,2013-12-07 18:49:00,
2013-12-07 13:54:00,27.8,27.1,30.40,NW,324,0.0,0.0,97,0.00,,---,0.00,VWS V14.01,2013-12-07 18:54:00,
2013-12-07 13:59:00,27.9,27.2,30.40,NW,324,0.0,0.0,97,0.00,,---,0.00,VWS V14.01,2013-12-07 18:59:00,
2013-12-07 14:04:00,28.1,27.4,30.40,NW,324,0.0,0.0,97,0.00,,---,0.00,VWS V14.01,2013-12-07 19:04:00,
2013-12-07 14:09:00,28.2,27.5,30.40,NW,324,0.0,0.0,97,0.00,,---,0.00,VWS V14.01,2013-12-07 19:09:00,
2013-12-07 14:14:00,28.2,27.5,30.40,NW,324,0.0,0.0,97,0.00,,---,0.00,VWS V14.01,2013-12-07 19:14:00,
2013-12-07 14:19:00,28.4,27.7,30.40,NW,324,0.0,0.0,97,0.00,,---,0.00,VWS V14.01,2013-12-07 19:19:00,
2013-12-07 14:24:00,28.5,27.8,30.40,NW,324,0.0,0.0,97,0.00,,---,0.00,VWS V14.01,2013-12-07 19:24:00,
2013-12-07 14:29:00,28.4,27.7,30.40,NW,324,0.0,0.0,97,0.00,,---,0.00,VWS V14.01,2013-12-07 19:29:00,
2013-12-07 14:34:00,28.3,27.6,30.41,NW,324,0.0,0.0,97,0.00,,---,0.00,VWS V14.01,2013-12-07 19:34:00,
2013-12-07 14:39:00,28.1,27.1,30.40,NW,324,0.0,0.0,96,0.00,,---,0.00,VWS V14.01,2013-12-07 19:39:00,
2013-12-07 14:44:00,28.2,27.2,30.41,NW,324,0.0,0.0,96,0.00,,---,0.00,VWS V14.01,2013-12-07 19:44:00,
2013-12-07 14:49:00,28.1,27.1,30.41,NW,324,0.0,0.0,96,0.00,,---,0.00,VWS V14.01,2013-12-07 19:49:00,
2013-12-07 14:54:00,27.9,26.9,30.41,NW,324,0.0,0.0,96,0.00,,---,0.00,VWS V14.01,2013-12-07 19:54:00,
2013-12-07 14:59:00,27.7,26.7,30.42,NW,324,0.0,0.0,96,0.00,,---,0.00,VWS V14.01,2013-12-07 19:59:00,
2013-12-07 15:05:00,27.5,26.5,30.41,NW,324,0.0,0.0,96,0.00,,---,0.00,VWS V14.01,2013-12-07 20:05:00,
2013-12-07 15:10:00,27.4,26.4,30.41,NW,324,0.0,0.0,96,0.00,,---,0.00,VWS V14.01,2013-12-07 20:10:00,
2013-12-07 15:15:00,27.3,26.1,30.42,NW,324,0.0,0.0,95,0.00,,---,0.00,VWS V14.01,2013-12-07 20:15:00,
2013-12-07 15:20:00,27.2,26.0,30.42,NW,324,0.0,0.0,95,0.00,,---,0.00,VWS V14.01,2013-12-07 20:20:00,
2013-12-07 15:25:00,27.3,26.1,30.42,NW,324,0.0,0.0,95,0.00,,---,0.00,VWS V14.01,2013-12-07 20:25:00,
2013-12-07 15:30:00,27.4,26.4,30.43,NW,324,0.0,0.0,96,0.00,,---,0.00,VWS V14.01,2013-12-07 20:30:00,
2013-12-07 15:35:00,27.3,26.1,30.43,NW,324,0.0,0.0,95,0.00,,---,0.00,VWS V14.01,2013-12-07 20:35:00,
2013-12-07 15:40:00,27.2,26.0,30.43,NW,324,0.0,0.0,95,0.00,,---,0.00,VWS V14.01,2013-12-07 20:40:00,
2013-12-07 15:45:00,27.1,25.9,30.43,NW,324,0.0,0.0,95,0.00,,---,0.00,VWS V14.01,2013-12-07 20:45:00,
2013-12-07 15:50:00,27.0,25.8,30.43,NW,324,0.0,0.0,95,0.00,,---,0.00,VWS V14.01,2013-12-07 20:50:00,
2013-12-07 15:55:00,26.9,25.7,30.43,NW,324,0.0,0.0,95,0.00,,---,0.00,VWS V14.01,2013-12-07 20:55:00,
2013-12-07 16:00:00,26.9,25.7,30.43,NW,324,0.0,0.0,95,0.00,,---,0.00,VWS V14.01,2013-12-07 21:00:00,
2013-12-07 16:05:00,26.9,25.7,30.43,NW,324,0.0,0.0,95,0.00,,---,0.00,VWS V14.01,2013-12-07 21:05:00,
2013-12-07 16:10:00,26.8,25.6,30.43,NW,324,0.0,0.0,95,0.00,,---,0.00,VWS V14.01,2013-12-07 21:10:00,
2013-12-07 16:15:00,26.7,25.5,30.43,NW,324,0.0,0.0,95,0.00,,---,0.00,VWS V14.01,2013-12-07 21:15:00,
2013-12-07 16:20:00,26.6,25.4,30.44,NW,324,0.0,0.0,95,0.00,,---,0.00,VWS V14.01,2013-12-07 21:20:00,
2013-12-07 16:25:00,26.5,25.3,30.43,NW,324,0.0,0.0,95,0.00,,---,0.00,VWS V14.01,2013-12-07 21:25:00,
2013-12-07 16:30:00,26.4,25.2,30.43,NW,324,0.0,0.0,95,0.00,,---,0.00,VWS V14.01,2013-12-07 21:30:00,
2013-12-07 16:36:00,26.2,24.7,30.43,NW,324,0.0,0.0,94,0.00,,---,0.00,VWS V14.01,2013-12-07 21:36:00,
2013-12-07 16:41:00,26.0,24.5,30.43,NW,324,0.0,0.0,94,0.00,,---,0.00,VWS V14.01,2013-12-07 21:41:00,
2013-12-07 16:46:00,25.9,24.4,30.44,NW,324,0.0,0.0,94,0.00,,---,0.00,VWS V14.01,2013-12-07 21:46:00,
2013-12-07 16:51:00,25.8,24.3,30.44,NW,324,0.0,0.0,94,0.00,,---,0.00,VWS V14.01,2013-12-07 21:51:00,
2013-12-07 16:56:00,25.7,24.2,30.44,NW,324,0.0,0.0,94,0.00,,---,0.00,VWS V14.01,2013-12-07 21:56:00,
2013-12-07 17:01:00,25.6,24.1,30.44,NW,324,0.0,0.0,94,0.00,,---,0.00,VWS V14.01,2013-12-07 22:01:00,
2013-12-07 17:06:00,25.5,24.0,30.45,NW,324,0.0,0.0,94,0.00,,---,0.00,VWS V14.01,2013-12-07 22:06:00,
2013-12-07 17:11:00,25.4,23.9,30.45,NW,324,0.0,0.0,94,0.00,,---,0.00,VWS V14.01,2013-12-07 22:11:00,
2013-12-07 17:16:00,25.3,23.8,30.45,NW,324,0.0,0.0,94,0.00,,---,0.00,VWS V14.01,2013-12-07 22:16:00,
2013-12-07 17:21:00,25.2,23.7,30.45,NW,324,0.0,0.0,94,0.00,,---,0.00,VWS V14.01,2013-12-07 22:21:00,
2013-12-07 17:26:00,25.1,23.6,30.46,NW,324,0.0,0.0,94,0.00,,---,0.00,VWS V14.01,2013-12-07 22:26:00,
2013-12-07 17:31:00,24.9,23.4,30.46,NW,324,0.0,0.0,94,0.00,,---,0.00,VWS V14.01,2013-12-07 22:31:00,
2013-12-07 17:36:00,24.8,23.3,30.46,NW,324,0.0,0.0,94,0.00,,---,0.00,VWS V14.01,2013-12-07 22:36:00,
2013-12-07 17:41:00,24.7,23.2,30.46,NW,324,0.0,0.0,94,0.00,,---,0.00,VWS V14.01,2013-12-07 22:41:00,
2013-12-07 17:46:00,24.7,23.2,30.46,NW,324,0.0,0.0,94,0.00,,---,0.00,VWS V14.01,2013-12-07 22:46:00,
2013-12-07 17:52:00,24.6,23.1,30.47,NW,324,0.0,0.0,94,0.00,,---,0.00,VWS V14.01,2013-12-07 22:52:00,
2013-12-07 17:57:00,24.5,23.0,30.46,NW,324,0.0,0.0,94,0.00,,---,0.00,VWS V14.01,2013-12-07 22:57:00,
2013-12-07 18:02:00,24.5,23.0,30.46,NW,324,0.0,0.0,94,0.00,,---,0.00,VWS V14.01,2013-12-07 23:02:00,
2013-12-07 18:07:00,24.4,22.9,30.46,NW,324,0.0,0.0,94,0.00,,---,0.00,VWS V14.01,2013-12-07 23:07:00,
2013-12-07 18:12:00,24.4,22.9,30.47,NW,324,0.0,0.0,94,0.00,,---,0.00,VWS V14.01,2013-12-07 23:12:00,
2013-12-07 18:17:00,24.3,22.8,30.47,NW,324,0.0,0.0,94,0.00,,---,0.00,VWS V14.01,2013-12-07 23:17:00,
2013-12-07 18:22:00,24.2,22.7,30.48,NW,324,0.0,0.0,94,0.00,,---,0.00,VWS V14.01,2013-12-07 23:22:00,
2013-12-07 18:27:00,24.1,22.6,30.49,NW,324,0.0,0.0,94,0.00,,---,0.00,VWS V14.01,2013-12-07 23:27:00,
2013-12-07 18:32:00,24.0,22.5,30.48,NW,324,0.0,0.0,94,0.00,,---,0.00,VWS V14.01,2013-12-07 23:32:00,
2013-12-07 18:37:00,24.0,22.5,30.49,NW,324,0.0,0.0,94,0.00,,---,0.00,VWS V14.01,2013-12-07 23:37:00,
2013-12-07 18:42:00,24.0,22.3,30.48,NW,324,0.0,0.0,93,0.00,,---,0.00,VWS V14.01,2013-12-07 23:42:00,
2013-12-07 18:47:00,23.9,22.2,30.47,NW,324,0.0,0.0,93,0.00,,---,0.00,VWS V14.01,2013-12-07 23:47:00,
2013-12-07 18:52:00,23.9,22.2,30.48,NW,324,0.0,0.0,93,0.00,,---,0.00,VWS V14.01,2013-12-07 23:52:00,
2013-12-07 18:57:00,23.8,22.1,30.49,NW,324,0.0,0.0,93,0.00,,---,0.00,VWS V14.01,2013-12-07 23:57:00,
2013-12-07 19:02:00,23.7,22.0,30.49,NW,324,0.0,0.0,93,0.00,,---,0.00,VWS V14.01,2013-12-08 00:02:00,
2013-12-07 19:07:00,23.6,21.9,30.49,NW,324,0.0,0.0,93,0.00,,---,0.00,VWS V14.01,2013-12-08 00:07:00,
2013-12-07 19:12:00,23.6,21.9,30.50,NW,324,0.0,0.0,93,0.00,,---,0.00,VWS V14.01,2013-12-08 00:12:00,
2013-12-07 19:18:00,23.6,21.9,30.49,NW,324,0.0,0.0,93,0.00,,---,0.00,VWS V14.01,2013-12-08 00:18:00,
2013-12-07 19:23:00,23.6,21.6,30.49,NW,324,0.0,0.0,92,0.00,,---,0.00,VWS V14.01,2013-12-08 00:23:00,
2013-12-07 19:28:00,23.5,21.5,30.49,NW,324,0.0,0.0,92,0.00,,---,0.00,VWS V14.01,2013-12-08 00:28:00,
2013-12-07 19:33:00,23.5,21.5,30.50,NW,324,0.0,0.0,92,0.00,,---,0.00,VWS V14.01,2013-12-08 00:33:00,
2013-12-07 19:38:00,23.4,21.4,30.50,NW,324,0.0,0.0,92,0.00,,---,0.00,VWS V14.01,2013-12-08 00:38:00,
2013-12-07 19:43:00,23.3,21.3,30.50,NW,324,0.0,0.0,92,0.00,,---,0.00,VWS V14.01,2013-12-08 00:43:00,
2013-12-07 19:48:00,23.3,21.3,30.50,NW,324,0.0,0.0,92,0.00,,---,0.00,VWS V14.01,2013-12-08 00:48:00,
2013-12-07 19:53:00,23.2,21.2,30.50,NW,324,0.0,0.0,92,0.00,,---,0.00,VWS V14.01,2013-12-08 00:53:00,
2013-12-07 19:58:00,23.2,21.2,30.50,NW,324,0.0,0.0,92,0.00,,---,0.00,VWS V14.01,2013-12-08 00:58:00,
2013-12-07 20:03:00,23.1,21.1,30.50,NW,324,0.0,0.0,92,0.00,,---,0.00,VWS V14.01,2013-12-08 01:03:00,
2013-12-07 20:08:00,23.1,21.1,30.49,NW,324,0.0,0.0,92,0.00,,---,0.00,VWS V14.01,2013-12-08 01:08:00,
2013-12-07 20:13:00,23.0,21.0,30.49,NW,324,0.0,0.0,92,0.00,,---,0.00,VWS V14.01,2013-12-08 01:13:00,
2013-12-07 20:18:00,22.9,20.9,30.50,NW,324,0.0,0.0,92,0.00,,---,0.00,VWS V14.01,2013-12-08 01:18:00,
2013-12-07 20:23:00,22.8,20.8,30.50,NW,324,0.0,0.0,92,0.00,,---,0.00,VWS V14.01,2013-12-08 01:23:00,
2013-12-07 20:28:00,22.6,20.6,30.50,NW,324,0.0,0.0,92,0.00,,---,0.00,VWS V14.01,2013-12-08 01:28:00,
2013-12-07 20:33:00,22.5,20.5,30.50,NW,324,0.0,0.0,92,0.00,,---,0.00,VWS V14.01,2013-12-08 01:33:00,
2013-12-07 20:39:00,22.5,20.5,30.51,NW,324,0.0,0.0,92,0.00,,---,0.00,VWS V14.01,2013-12-08 01:39:00,
2013-12-07 20:44:00,22.5,20.5,30.50,NW,324,0.0,0.0,92,0.00,,---,0.00,VWS V14.01,2013-12-08 01:44:00,
2013-12-07 20:49:00,22.5,20.5,30.50,NW,324,0.0,0.0,92,0.00,,---,0.00,VWS V14.01,2013-12-08 01:49:00,
2013-12-07 20:54:00,22.5,20.5,30.50,NW,324,0.0,0.0,92,0.00,,---,0.00,VWS V14.01,2013-12-08 01:54:00,
2013-12-07 20:59:00,22.5,20.5,30.50,NW,324,0.0,0.0,92,0.00,,---,0.00,VWS V14.01,2013-12-08 01:59:00,
2013-12-07 21:04:00,22.4,20.2,30.50,NW,324,0.0,0.0,91,0.00,,---,0.00,VWS V14.01,2013-12-08 02:04:00,
2013-12-07 21:09:00,22.4,20.2,30.51,NW,324,0.0,0.0,91,0.00,,---,0.00,VWS V14.01,2013-12-08 02:09:00,
2013-12-07 21:14:00,22.4,20.2,30.50,NW,324,0.0,0.0,91,0.00,,---,0.00,VWS V14.01,2013-12-08 02:14:00,
2013-12-07 21:19:00,22.3,20.1,30.51,NW,324,0.0,0.0,91,0.00,,---,0.00,VWS V14.01,2013-12-08 02:19:00,
2013-12-07 21:24:00,22.3,20.1,30.51,NW,324,0.0,0.0,91,0.00,,---,0.00,VWS V14.01,2013-12-08 02:24:00,
2013-12-07 21:29:00,22.2,20.0,30.50,NW,324,0.0,0.0,91,0.00,,---,0.00,VWS V14.01,2013-12-08 02:29:00,
2013-12-07 21:34:00,22.1,19.9,30.51,NW,324,0.0,0.0,91,0.00,,---,0.00,VWS V14.01,2013-12-08 02:34:00,
2013-12-07 21:39:00,22.1,20.1,30.51,NW,324,0.0,0.0,92,0.00,,---,0.00,VWS V14.01,2013-12-08 02:39:00,
2013-12-07 21:44:00,22.0,20.0,30.51,NW,324,0.0,0.0,92,0.00,,---,0.00,VWS V14.01,2013-12-08 02:44:00,
2013-12-07 21:49:00,22.0,19.8,30.52,NW,324,0.0,0.0,91,0.00,,---,0.00,VWS V14.01,2013-12-08 02:49:00,
2013-12-07 21:54:00,21.9,19.7,30.51,NW,324,0.0,0.0,91,0.00,,---,0.00,VWS V14.01,2013-12-08 02:54:00,
2013-12-07 21:59:00,21.8,19.6,30.51,NW,324,0.0,0.0,91,0.00,,---,0.00,VWS V14.01,2013-12-08 02:59:00,
2013-12-07 22:05:00,21.8,19.6,30.50,NW,324,0.0,0.0,91,0.00,,---,0.00,VWS V14.01,2013-12-08 03:05:00,
2013-12-07 22:10:00,21.8,19.6,30.51,NW,324,0.0,0.0,91,0.00,,---,0.00,VWS V14.01,2013-12-08 03:10:00,
2013-12-07 22:15:00,21.8,19.6,30.51,NW,324,0.0,0.0,91,0.00,,---,0.00,VWS V14.01,2013-12-08 03:15:00,
2013-12-07 22:20:00,21.7,19.5,30.51,NW,324,0.0,0.0,91,0.00,,---,0.00,VWS V14.01,2013-12-08 03:20:00,
2013-12-07 22:25:00,21.7,19.5,30.51,NW,324,0.0,0.0,91,0.00,,---,0.00,VWS V14.01,2013-12-08 03:25:00,
2013-12-07 22:30:00,21.6,19.4,30.52,NW,324,0.0,0.0,91,0.00,,---,0.00,VWS V14.01,2013-12-08 03:30:00,
2013-12-07 22:35:00,21.6,19.4,30.51,NW,324,0.0,0.0,91,0.00,,---,0.00,VWS V14.01,2013-12-08 03:35:00,
2013-12-07 22:40:00,21.5,19.3,30.50,NW,324,0.0,0.0,91,0.00,,---,0.00,VWS V14.01,2013-12-08 03:40:00,
2013-12-07 22:45:00,21.5,19.3,30.51,NW,324,0.0,0.0,91,0.00,,---,0.00,VWS V14.01,2013-12-08 03:45:00,
2013-12-07 22:50:00,21.4,19.2,30.51,NW,324,0.0,0.0,91,0.00,,---,0.00,VWS V14.01,2013-12-08 03:50:00,
2013-12-07 22:55:00,21.3,19.1,30.51,NW,324,0.0,0.0,91,0.00,,---,0.00,VWS V14.01,2013-12-08 03:55:00,
2013-12-07 23:00:00,21.3,19.1,30.51,NW,324,0.0,0.0,91,0.00,,---,0.00,VWS V14.01,2013-12-08 04:00:00,
2013-12-07 23:05:00,21.2,19.0,30.52,NW,324,0.0,0.0,91,0.00,,---,0.00,VWS V14.01,2013-12-08 04:05:00,
2013-12-07 23:10:00,21.2,19.0,30.52,NW,324,0.0,0.0,91,0.00,,---,0.00,VWS V14.01,2013-12-08 04:10:00,
2013-12-07 23:15:00,21.1,18.9,30.53,NW,324,0.0,0.0,91,0.00,,---,0.00,VWS V14.01,2013-12-08 04:15:00,
2013-12-07 23:20:00,20.9,18.7,30.52,NW,324,0.0,0.0,91,0.00,,---,0.00,VWS V14.01,2013-12-08 04:20:00,
2013-12-07 23:25:00,20.8,18.6,30.53,NW,324,0.0,0.0,91,0.00,,---,0.00,VWS V14.01,2013-12-08 04:25:00,
2013-12-07 23:30:00,20.7,18.5,30.53,North,0,0.0,0.0,91,0.00,,---,0.00,VWS V14.01,2013-12-08 04:30:00,
2013-12-07 23:31:00,20.7,18.5,30.53,NW,324,0.0,0.0,91,0.00,,---,0.00,VWS V14.01,2013-12-08 04:31:00,
2013-12-07 23:36:00,20.6,18.4,30.53,NW,324,0.0,0.0,91,0.00,,---,0.00,VWS V14.01,2013-12-08 04:36:00,
2013-12-07 23:40:00,20.4,18.2,30.54,North,0,0.0,0.0,91,0.00,,---,0.00,VWS V14.01,2013-12-08 04:40:00,
2013-12-07 23:41:00,20.4,18.2,30.54,NW,324,0.0,0.0,91,0.00,,---,0.00,VWS V14.01,2013-12-08 04:41:00,
2013-12-07 23:46:00,20.3,18.1,30.54,NW,324,0.0,0.0,91,0.00,,---,0.00,VWS V14.01,2013-12-08 04:46:00,
2013-12-07 23:50:00,20.3,18.1,30.54,North,0,0.0,0.0,91,0.00,,---,0.00,VWS V14.01,2013-12-08 04:50:00,
2013-12-07 23:51:00,20.3,18.1,30.54,NW,324,0.0,0.0,91,0.00,,---,0.00,VWS V14.01,2013-12-08 04:51:00,
2013-12-07 23:56:00,20.3,18.4,30.53,NW,324,0.0,0.0,92,0.00,,---,0.00,VWS V14.01,2013-12-08 04:56:00,